Location: Bauerbach
(50.4985°N, 10.3912°E)
Time: 14:56:53
(UTC+00:00)

Meteor 2-5 Rocket - Pass Details

Date: 13 January 2026
Orbit: 832 x 910 km, 81.2° (Epoch: 10 February)

Event Time Altitude Azimuth Distance (km) Brightness Sun altitude
Rises 06:18:06 0° 347° (NNW) 3,484 6.5 -8.7°
Reaches altitude 10° 06:20:32 10° 348° (NNW) 2,553 5.9 -8.4°
Maximum altitude 06:26:23 88° 78° (ENE) 903 3.9 -7.5°
Drops below altitude 10° 06:32:17 10° 169° (S) 2,578 6.8 -6.7°
Sets 06:34:45 0° 169° (S) 3,521 7.5 -6.3°
